This is the latest recevied weather packets stored in our database for station/object S57D-6. If no packets are shown the sender has not sent any weather packets the latest 10 day(s).
| Time | Temp. | Humidity | Pressure | Rain* | Wind** | Luminosity | Snow |
|---|---|---|---|---|---|---|---|
| 1777311672 | 18.89° C | 45% | 1015.9 hPa | 0 mm | - | - | - |
| 1777311372 | 19.44° C | 45% | 1015.9 hPa | 0 mm | - | - | - |
| 1777311071 | 19.44° C | 44% | 1015.9 hPa | 0 mm | - | - | - |
| 1777310772 | 19.44° C | 44% | 1015.8 hPa | 0 mm | - | - | - |
| 1777310230 | 20° C | 43% | 1015.8 hPa | 0 mm | - | - | - |
| 1777309929 | 20° C | 43% | 1015.8 hPa | 0 mm | - | - | - |
| 1777309328 | 20.56° C | 42% | 1015.8 hPa | 0 mm | - | - | - |
| 1777309030 | 20.56° C | 42% | 1015.7 hPa | 0 mm | - | - | - |
| 1777308727 | 20.56° C | 41% | 1015.7 hPa | 0 mm | - | - | - |
| 1777308428 | 21.11° C | 41% | 1015.7 hPa | 0 mm | - | - | - |
| 1777308127 | 21.11° C | 40% | 1015.7 hPa | 0 mm | - | - | - |
| 1777307830 | 21.11° C | 40% | 1015.8 hPa | 0 mm | - | - | - |
| 1777307526 | 21.67° C | 39% | 1015.8 hPa | 0 mm | - | - | - |
| 1777307228 | 21.67° C | 39% | 1015.8 hPa | 0 mm | - | - | - |
| 1777306926 | 22.22° C | 39% | 1015.7 hPa | 0 mm | - | - | - |
| 1777306627 | 22.22° C | 39% | 1015.8 hPa | 0 mm | - | - | - |
| 1777306325 | 22.22° C | 39% | 1015.8 hPa | 0 mm | - | - | - |
| 1777305725 | 22.22° C | 39% | 1015.8 hPa | 0 mm | - | - | - |
| 1777305425 | 22.22° C | 38% | 1015.8 hPa | 0 mm | - | - | - |
| 1777305124 | 22.22° C | 39% | 1015.8 hPa | 0 mm | - | - | - |
| 1777304825 | 22.22° C | 39% | 1015.8 hPa | 0 mm | - | - | - |
| 1777304523 | 22.22° C | 39% | 1015.7 hPa | 0 mm | - | - | - |
| 1777303923 | 21.67° C | 38% | 1015.9 hPa | 0 mm | - | - | - |
| 1777303624 | 21.67° C | 39% | 1015.9 hPa | 0 mm | - | - | - |
| 1777303322 | 21.67° C | 38% | 1016.1 hPa | 0 mm | - | - | - |
* Rain latest hour (hover to see other rain measurements)
** Current wind speed in m/s (hover to see current wind gust speed)